When you browse on this site, cookies collect data to enhance your experience and personalize the content and advertising you see.
Visit our Privacy Policy to learn more. By continuing to use the site, you agree to this use of cookies and data.
  • In Österreich
  • Länderverzeichnis
  • Für 7 Tage
  • Wassertemperatur
  • Satellitenkarten
  • Wetterkarte
  • News
  • Widgets
  • user-avatar
    Anmelden

    Stündliche Wetter Sidi Bu-l-Abbas

    Heute, 18 Januar, Freitag

    Zeit Temperatur Niederschläge Wind Luftdruck Luftfeuchtigkeit
    00:00 +7°C° 0 mm 0 m/S 720 mmHg 76%
    01:00 +8°C° 0 mm 1 m/S 720 mmHg 77%
    02:00 +7°C° 0 mm 1 m/S 720 mmHg 78%
    03:00 +7°C° 0 mm 1 m/S 720 mmHg 80%
    04:00 +7°C° 0 mm 1 m/S 720 mmHg 80%
    05:00 +7°C° 0 mm 1 m/S 720 mmHg 81%
    06:00 +7°C° 0 mm 1 m/S 720 mmHg 82%
    07:00 +8°C° 0 mm 1 m/S 720 mmHg 75%
    08:00 +9°C° 0 mm 1 m/S 721 mmHg 69%
    09:00 +10°C° 0 mm 2 m/S 721 mmHg 63%
    10:00 +12°C° 0 mm 2 m/S 721 mmHg 58%
    11:00 +12°C° 0 mm 3 m/S 721 mmHg 54%
    12:00 +13°C° 0 mm 4 m/S 721 mmHg 50%
    13:00 +13°C° 0 mm 5 m/S 721 mmHg 51%
    14:00 +13°C° 0 mm 5 m/S 721 mmHg 52%
    15:00 +13°C° 0 mm 6 m/S 720 mmHg 53%
    16:00 +12°C° 0 mm 5 m/S 720 mmHg 63%
    17:00 +11°C° 0 mm 4 m/S 720 mmHg 72%
    18:00 +8°C° 0 mm 4 m/S 720 mmHg 82%
    19:00 +9°C° 0 mm 3 m/S 721 mmHg 84%
    20:00 +9°C° 0 mm 3 m/S 721 mmHg 86%
    21:00 +8°C° 0 mm 3 m/S 721 mmHg 88%
    22:00 +8°C° 0 mm 3 m/S 721 mmHg 88%
    23:00 +8°C° 0 mm 3 m/S 721 mmHg 88%

    Morgen, 19 Januar, Samstag

    Zeit Temperatur Niederschläge Wind Luftdruck Luftfeuchtigkeit
    00:00 +8°C° 0 mm 3 m/S 721 mmHg 88%
    01:00 +7°C° 0 mm 3 m/S 721 mmHg 88%
    02:00 +7°C° 0 mm 3 m/S 721 mmHg 88%
    03:00 +7°C° 0 mm 3 m/S 721 mmHg 89%
    04:00 +7°C° 0 mm 3 m/S 721 mmHg 89%
    05:00 +5°C° 0 mm 3 m/S 721 mmHg 90%
    06:00 +5°C° 0 mm 4 m/S 721 mmHg 90%
    07:00 +6°C° 0 mm 4 m/S 721 mmHg 85%
    08:00 +7°C° 0 mm 5 m/S 722 mmHg 79%
    09:00 +8°C° 0 mm 6 m/S 722 mmHg 74%
    10:00 +9°C° 0 mm 6 m/S 722 mmHg 68%
    11:00 +10°C° 0 mm 6 m/S 722 mmHg 63%
    12:00 +11°C° 0 mm 6 m/S 722 mmHg 57%
    13:00 +11°C° 0 mm 6 m/S 721 mmHg 54%
    14:00 +12°C° 0 mm 7 m/S 721 mmHg 51%
    15:00 +12°C° 0 mm 7 m/S 720 mmHg 48%
    16:00 +11°C° 0.1 mm 6 m/S 720 mmHg 55%
    17:00 +10°C° 0.1 mm 5 m/S 720 mmHg 63%
    18:00 +11°C° 0.1 mm 4 m/S 720 mmHg 70%
    19:00 +11°C° 0 mm 4 m/S 720 mmHg 70%
    20:00 +11°C° 0 mm 4 m/S 720 mmHg 70%
    21:00 +10°C° 0 mm 3 m/S 721 mmHg 69%
    22:00 +10°C° 0 mm 4 m/S 720 mmHg 69%
    23:00 +10°C° 0 mm 4 m/S 720 mmHg 70%

    übermorgen, 20 Januar, Sonntag

    Zeit Temperatur Niederschläge Wind Luftdruck Luftfeuchtigkeit
    00:00 +9°C° 0 mm 5 m/S 720 mmHg 70%
    01:00 +9°C° 0.1 mm 5 m/S 719 mmHg 70%
    02:00 +9°C° 0.1 mm 5 m/S 719 mmHg 70%
    03:00 +9°C° 0.1 mm 5 m/S 718 mmHg 70%
    04:00 +9°C° 0.4 mm 5 m/S 718 mmHg 73%
    05:00 +9°C° 0.4 mm 6 m/S 718 mmHg 75%
    06:00 +9°C° 0.4 mm 6 m/S 717 mmHg 78%
    07:00 +10°C° 0.1 mm 7 m/S 718 mmHg 76%
    08:00 +10°C° 0.1 mm 8 m/S 718 mmHg 73%
    09:00 +11°C° 0.1 mm 8 m/S 718 mmHg 71%
    10:00 +12°C° 0 mm 10 m/S 718 mmHg 67%
    11:00 +13°C° 0 mm 11 m/S 718 mmHg 64%
    12:00 +14°C° 0 mm 12 m/S 718 mmHg 61%
    13:00 +13°C° 0.3 mm 13 m/S 717 mmHg 63%
    14:00 +13°C° 0.3 mm 13 m/S 717 mmHg 65%
    15:00 +12°C° 0.3 mm 13 m/S 717 mmHg 67%
    16:00 +10°C° 0.1 mm 12 m/S 717 mmHg 72%
    17:00 +9°C° 0.1 mm 10 m/S 717 mmHg 77%
    18:00 +8°C° 0.1 mm 9 m/S 718 mmHg 82%
    19:00 +8°C° 0.9 mm 9 m/S 718 mmHg 85%
    20:00 +8°C° 0.9 mm 9 m/S 719 mmHg 87%
    21:00 +9°C° 0.9 mm 8 m/S 720 mmHg 90%
    22:00 +7°C° 1.3 mm 8 m/S 720 mmHg 89%
    23:00 +8°C° 1.3 mm 7 m/S 720 mmHg 89%

    21 Januar, Montag

    Zeit Temperatur Niederschläge Wind Luftdruck Luftfeuchtigkeit
    00:00 +8°C° 1.3 mm 7 m/S 720 mmHg 88%
    01:00 +8°C° 0.3 mm 6 m/S 720 mmHg 88%
    02:00 +8°C° 0.3 mm 5 m/S 720 mmHg 88%
    03:00 +7°C° 0.3 mm 4 m/S 720 mmHg 88%
    04:00 +7°C° 0 mm 4 m/S 720 mmHg 87%
    05:00 +7°C° 0 mm 4 m/S 721 mmHg 86%
    06:00 +7°C° 0 mm 4 m/S 721 mmHg 85%
    07:00 +7°C° 0 mm 5 m/S 721 mmHg 80%
    08:00 +8°C° 0 mm 5 m/S 722 mmHg 75%
    09:00 +8°C° 0 mm 6 m/S 722 mmHg 70%
    10:00 +9°C° 0.1 mm 6 m/S 722 mmHg 66%
    11:00 +9°C° 0.1 mm 6 m/S 722 mmHg 62%
    12:00 +10°C° 0.1 mm 6 m/S 722 mmHg 59%
    13:00 +10°C° 0.5 mm 6 m/S 722 mmHg 60%
    14:00 +9°C° 0.5 mm 6 m/S 722 mmHg 62%
    15:00 +9°C° 0.5 mm 6 m/S 721 mmHg 64%
    16:00 +8°C° 0.2 mm 5 m/S 722 mmHg 67%
    17:00 +8°C° 0.2 mm 4 m/S 722 mmHg 70%
    18:00 +8°C° 0.2 mm 3 m/S 722 mmHg 74%
    19:00 +8°C° 0 mm 3 m/S 722 mmHg 75%
    20:00 +7°C° 0 mm 3 m/S 722 mmHg 77%
    21:00 +7°C° 0 mm 3 m/S 723 mmHg 78%
    22:00 +7°C° 0 mm 3 m/S 723 mmHg 79%
    23:00 +5°C° 0 mm 3 m/S 723 mmHg 79%

    22 Januar, Dienstag

    Zeit Temperatur Niederschläge Wind Luftdruck Luftfeuchtigkeit
    00:00 +5°C° 0 mm 4 m/S 723 mmHg 80%
    01:00 +5°C° 0.1 mm 4 m/S 722 mmHg 81%
    02:00 +5°C° 0.1 mm 4 m/S 722 mmHg 82%
    03:00 +5°C° 0.1 mm 4 m/S 722 mmHg 83%
    04:00 +4°C° 0.1 mm 4 m/S 722 mmHg 84%
    05:00 +4°C° 0.1 mm 3 m/S 722 mmHg 84%
    06:00 +4°C° 0.1 mm 3 m/S 722 mmHg 85%
    07:00 +5°C° 0.1 mm 4 m/S 722 mmHg 82%
    08:00 +6°C° 0.1 mm 4 m/S 722 mmHg 79%
    09:00 +7°C° 0.1 mm 5 m/S 723 mmHg 76%
    10:00 +8°C° 0.2 mm 6 m/S 722 mmHg 72%
    11:00 +7°C° 0.2 mm 8 m/S 722 mmHg 67%
    12:00 +8°C° 0.2 mm 10 m/S 722 mmHg 63%
    13:00 +8°C° 0.1 mm 10 m/S 721 mmHg 63%
    14:00 +8°C° 0.1 mm 11 m/S 720 mmHg 63%
    15:00 +8°C° 0.1 mm 11 m/S 719 mmHg 63%
    16:00 +7°C° 0 mm 11 m/S 718 mmHg 66%
    17:00 +7°C° 0 mm 10 m/S 718 mmHg 70%
    18:00 +6°C° 0 mm 10 m/S 718 mmHg 73%
    19:00 +6°C° 0.1 mm 11 m/S 718 mmHg 74%
    20:00 +5°C° 0.1 mm 12 m/S 717 mmHg 75%
    21:00 +5°C° 0.1 mm 13 m/S 717 mmHg 75%
    22:00 +5°C° 1.3 mm 13 m/S 717 mmHg 79%
    23:00 +5°C° 1.3 mm 13 m/S 716 mmHg 83%

    23 Januar, Mittwoch

    Zeit Temperatur Niederschläge Wind Luftdruck Luftfeuchtigkeit
    00:00 +4°C° 1.3 mm 13 m/S 716 mmHg 88%
    01:00 +4°C° 4.5 mm 13 m/S 716 mmHg 88%
    02:00 +4°C° 4.5 mm 13 m/S 715 mmHg 88%
    03:00 +4°C° 4.5 mm 13 m/S 715 mmHg 89%
    04:00 +3°C° 1.7 mm 10 m/S 716 mmHg 83%
    05:00 +4°C° 1.7 mm 7 m/S 716 mmHg 78%
    06:00 +5°C° 1.7 mm 4 m/S 717 mmHg 73%
    07:00 +5°C° 0.2 mm 5 m/S 717 mmHg 70%
    08:00 +5°C° 0.2 mm 6 m/S 718 mmHg 67%
    09:00 +5°C° 0.2 mm 7 m/S 718 mmHg 64%
    10:00 +6°C° 0 mm 8 m/S 718 mmHg 61%
    11:00 +7°C° 0 mm 9 m/S 718 mmHg 58%
    12:00 +7°C° 0 mm 10 m/S 718 mmHg 54%
    13:00 +7°C° 0 mm 11 m/S 717 mmHg 59%
    14:00 +7°C° 0 mm 13 m/S 716 mmHg 63%
    15:00 +6°C° 0 mm 14 m/S 715 mmHg 68%
    16:00 +5°C° 0 mm 14 m/S 715 mmHg 67%
    17:00 +5°C° 0 mm 13 m/S 715 mmHg 66%
    18:00 +4°C° 0 mm 12 m/S 715 mmHg 64%
    19:00 +4°C° 0 mm 12 m/S 715 mmHg 67%
    20:00 +5°C° 0 mm 13 m/S 715 mmHg 69%
    21:00 +5°C° 0 mm 13 m/S 715 mmHg 72%
    22:00 +5°C° 0.1 mm 13 m/S 715 mmHg 74%
    23:00 +5°C° 0.1 mm 13 m/S 714 mmHg 76%
    Mehr zeigen